Flag for Australia Weather past 2 weeks in Melbourne, Victoria, Australia

Now
57 °F

Partly sunny.


Feels Like: 55 °F
Forecast: 51 / 59 °F
Wind: 10 mph from South

Location: Melbourne Airport

Current Time: Apr 27, 2015 at 4:36:17 PM

Latest Report: Apr 27, 2015 at 4:00 PM


Visibility: N/A

Pressure: 30.21 "Hg

Humidity: 67%

Dew point: 46 °F

Location of MelbourneLocation

Historic Weather in Melbourne — Graph

°F

Melbourne temperature yesterday

Maximum temperature yesterday: 59 °F (at 1:00 PM)
Minimum temperature yesterday: 48 °F (at 6:00 AM)
Average temperature yesterday: 53 °F

Past Weeks' High & Low Weather Summary

 TemperatureHumidityPressure
High81 °F (Apr 15, 2:30 PM)100% (Apr 18, 1:00 AM)30.63 "Hg (Apr 18, 1:00 AM)
Low41 °F (Apr 20, 7:00 AM)33% (Apr 18, 3:00 PM)29.62 "Hg (Apr 24, 1:00 PM)
Average56 °F75%30.13 "Hg
* Reported Apr 12 3:00 PM — Apr 27 3:30 PM, Melbourne, Weather by CustomWeather, © 2015

Note: Actual official high and low records may vary slightly from our data, if they occured in-between our weather recording intervals... More about our weather records

Advertising

Melbourne weather history for previous 24 hours

 ConditionsComfort  
Time TempWeatherWind HumidityBarometerVisibility
3:30 PM
Mon, Apr 27
57 °FPartly sunny.12 mph67%30.21 "HgN/A
3:00 PM57 °FBroken clouds.12 mph63%30.21 "HgN/A
2:30 PM57 °FBroken clouds.13 mph63%30.21 "HgN/A
2:00 PM57 °FBroken clouds.10 mph63%30.18 "HgN/A
1:30 PM57 °FBroken clouds.10 mph59%30.18 "HgN/A
1:00 PM57 °FBroken clouds.12 mph59%30.18 "HgN/A
12:30 PM57 °FPartly sunny.14 mph63%30.21 "HgN/A
12:00 PM57 °FPartly sunny.15 mph63%30.21 "HgN/A
11:30 AM57 °FBroken clouds.14 mph63%30.21 "HgN/A
11:00 AM57 °FScattered clouds.13 mph63%30.21 "HgN/A
10:30 AM57 °FBroken clouds.15 mph63%30.21 "HgN/A
10:00 AM55 °FScattered clouds.16 mph67%30.21 "HgN/A
9:30 AM55 °FPassing clouds.13 mph77%30.21 "HgN/A
9:00 AM52 °FPartly sunny.14 mph82%30.21 "HgN/A
8:30 AM52 °FPartly sunny.13 mph82%30.21 "HgN/A
8:00 AM52 °FPartly sunny.13 mph82%30.21 "HgN/A
7:30 AM50 °FBroken clouds.13 mph88%30.18 "HgN/A
7:00 AM50 °FPartly sunny.13 mph88%30.18 "HgN/A
6:30 AM50 °FPartly sunny.12 mph88%30.18 "HgN/A
6:00 AM50 °FPartly sunny.12 mph88%30.15 "HgN/A
5:30 AM50 °FPassing clouds.10 mph88%30.15 "HgN/A
5:00 AM50 °FPassing clouds.10 mph88%30.15 "HgN/A
4:30 AM50 °FPassing clouds.12 mph88%30.15 "HgN/A
4:00 AM50 °FPassing clouds.12 mph88%30.15 "HgN/A
3:30 AM50 °FPassing clouds.13 mph88%30.15 "HgN/A
3:00 AM50 °FPartly cloudy.14 mph88%30.15 "HgN/A
2:30 AM50 °FPassing clouds.13 mph88%30.15 "HgN/A
2:00 AM50 °FPassing clouds.15 mph88%30.15 "HgN/A
1:30 AM50 °FPassing clouds.14 mph88%30.15 "HgN/A
1:00 AM50 °FPassing clouds.13 mph88%30.15 "HgN/A
12:30 AM50 °FPassing clouds.14 mph88%30.15 "HgN/A
12:00 AM50 °FPassing clouds.13 mph82%30.15 "HgN/A
11:30 PM
Sun, Apr 26
50 °FClear.12 mph82%30.15 "Hg10 mi
11:00 PM50 °FPassing clouds.10 mph82%30.15 "HgN/A
10:30 PM50 °FPassing clouds.12 mph88%30.15 "HgN/A
10:00 PM52 °FPassing clouds.13 mph82%30.15 "HgN/A
9:30 PM52 °FPassing clouds.10 mph77%30.15 "HgN/A
9:00 PM52 °FClear.10 mph77%30.15 "Hg10 mi
8:30 PM52 °FClear.13 mph77%30.15 "Hg10 mi
8:00 PM52 °FClear.15 mph72%30.15 "Hg10 mi
7:00 PM54 °FPassing clouds.17 mph72%30.15 "HgN/A
6:30 PM54 °FPartly cloudy.18 mph72%30.12 "HgN/A
6:00 PM54 °FPassing clouds.17 mph67%30.12 "HgN/A
5:00 PM55 °FPartly cloudy.18 mph63%30.09 "HgN/A
4:30 PM55 °FBroken clouds.17 mph63%30.09 "HgN/A
4:00 PM55 °FBroken clouds.21 mph67%30.09 "HgN/A
Weather by CustomWeather, © 2015

See weather overviewHow to use our weather pages